Preview of NWS' New Version of Forecast
This preview is not operational and should not be used for support decisions.

Regional Weather Roundup (RWR)

Issued by National Weather Service (NWS)

                            
000
ASUS45 KCYS 211810
RWRWY 

WYOMING REGIONAL WEATHER ROUNDUP
NATIONAL WEATHER SERVICE CHEYENNE WY
1200 PM MDT WED AUG 21 2019

NOTE:  "FAIR" INDICATES FEW OR NO CLOUDS BELOW 12,000 FEET
WITH NO SIGNIFICANT WEATHER AND/OR OBSTRUCTIONS TO VISIBILITY.

WYZ001-211900-
YELLOWSTONE NATIONAL PARK
  
CITY           SKY/WX    TMP DP  RH WIND       PRES   REMARKS
LK YELLOWSTONE   N/A     71  38  29 E5        30.34F                  
6HR MIN TEMP:  39; 6HR MAX TEMP:  72;                                

W YELLOWSTONE  NOT AVBL                                               

$$
WYZ002>013-054>058-071-098>099-211900-
NORTHERN WYOMING
  
CITY           SKY/WX    TMP DP  RH WIND       PRES   REMARKS
JACKSON        FAIR      74  43  32 SW6       30.23F                  
CODY           FAIR      77  52  41 N3        30.16F                  
GREYBULL       FAIR      81  52  36 NE3       30.07F                  
6HR MIN TEMP:  60; 6HR MAX TEMP:  82;                                

WORLAND        FAIR      80  52  37 NW6       30.09F                  
6HR MIN TEMP:  56; 6HR MAX TEMP:  80;                                

SHERIDAN       FAIR      84  56  38 SE13      30.10F                  
6HR MIN TEMP:  54; 6HR MAX TEMP:  85;                                

BUFFALO        FAIR      77  54  44 SE13      30.18F                  
6HR MIN TEMP:  56; 6HR MAX TEMP:  77;                                

GILLETTE       FAIR      78  56  46 S20       30.15F                  
6HR MIN TEMP:  60; 6HR MAX TEMP:  78;                                

HULETT         FAIR      75  59  57 CALM      30.19                   
NEWCASTLE      FAIR      72  55  56 S18G29    30.22                   

$$
WYZ014>020-022>026-101>103-211900-
CENTRAL WYOMING
  
CITY           SKY/WX    TMP DP  RH WIND       PRES   REMARKS
BIG PINEY      FAIR      78  31  17 S9        30.28F                  
6HR MIN TEMP:  38; 6HR MAX TEMP:  78;                                

PINEDALE       FAIR      77  36  22 SE5       30.29                   
DUBOIS         FAIR      72  41  33 SE7       30.27                   
LANDER         FAIR      77  49  37 CALM      30.17F                  
6HR MIN TEMP:  60; 6HR MAX TEMP:  80;                                

RIVERTON       FAIR      81  51  35 N8        30.17F                  
6HR MIN TEMP:  60; 6HR MAX TEMP:  82;                                

CASPER         FAIR      81  49  32 CALM      30.17F                  
6HR MIN TEMP:  51; 6HR MAX TEMP:  81;                                

DOUGLAS        FAIR      78  53  41 SE21G30   30.19F                  
6HR MIN TEMP:  54; 6HR MAX TEMP:  78;                                


$$
WYZ021-027>030-104>119-211900-
SOUTHERN WYOMING
  
CITY           SKY/WX    TMP DP  RH WIND       PRES   REMARKS
EVANSTON       FAIR      82  17   9 NW6       30.27F                  
6HR MIN TEMP:  55; 6HR MAX TEMP:  83;                                

KEMMERER       FAIR      77  21  12 S6        30.30                   
ROCK SPRINGS   FAIR      79  43  27 VRB3      30.25F                  
6HR MIN TEMP:  55; 6HR MAX TEMP:  79;                                

DIXON          FAIR      78  30  17 W5        30.26F                  
RAWLINS        FAIR      77  41  27 SE7       30.27F                  
6HR MIN TEMP:  46; 6HR MAX TEMP:  78;                                

SARATOGA       FAIR      77  37  24 N3        30.29S                  
LARAMIE        FAIR      73  49  42 S20G30    30.30F                  
6HR MIN TEMP:  52; 6HR MAX TEMP:  75;                                

CHEYENNE       FAIR      75  52  44 S15G22    30.28F                  
6HR MIN TEMP:  58; 6HR MAX TEMP:  75;                                

TORRINGTON     FAIR      75  58  55 S9        30.18F                  
6HR MIN TEMP:  59; 6HR MAX TEMP:  76;                                

PINE BLUFFS    FAIR      73  50  43 SE9G16    30.25F                  

$$